Wind_Speed
14 13 15 18 19 18 18 17 13 13 18 22 25 27 27 26 25 24 24 25 27 29 31 33 34 35 34 33 32 30 28 26 23 19 17 17 18 18 17 15 14 14 15 19 23 26 25 23 21 19 18 17 16 13 11 8 7 5 4 3 2 4 5 5 6 6 6 7 6 7 7 7 6 5 5 5 4 3 3 3 3 4 6 7 8 10 12 14
15 16 17 19 19 14 13 13 11 13 18 22 24 25 25 25 26 25 25 27 27 23 24 33 37 35 35 33 32 29 27 25 21 18 17 17 17 17 15 14 15 16 19 24 27 27 25 23 22 19 17 16 14 11 9 7 5 4 3 2 2 4 5 5 6 5 5 6 6 6 6 6 5 5 4 4 3 3 2 2 2 3 5 6 7 9 11 13
15 15 16 17 18 14 13 14 14 15 19 22 22 23 24 26 27 25 25 28 26 21 21 32 39 37 36 34 31 28 26 24 20 17 17 17 16 15 15 16 17 20 25 27 28 26 25 23 22 20 16 14 11 8 6 5 4 3 2 2 2 4 4 5 5 5 5 5 5 6 6 5 5 4 3 3 3 2 2 1 1 2 3 5 7 9 11 13
14 13 14 16 17 15 14 16 16 17 19 21 21 23 25 27 26 24 24 24 24 21 19 28 37 38 36 33 31 28 25 22 19 18 17 16 15 15 17 19 22 26 29 29 27 25 24 23 21 19 15 12 10 6 5 4 3 2 2 1 2 3 3 5 5 5 5 4 4 5 5 5 4 3 3 2 1 1 1 1 2 3 5 7 9 11 12 13
15 14 14 16 17 16 16 18 18 18 20 21 21 23 25 26 24 22 21 21 21 19 16 19 27 34 36 34 30 26 24 22 19 17 16 15 16 18 20 24 28 30 30 29 27 25 24 22 20 18 15 11 8 5 3 3 2 2 1 1 2 2 2 5 6 5 5 4 4 5 5 4 3 2 2 1 1 1 2 2 3 5 7 9 10 11 13 14
15 15 15 16 16 17 18 20 20 20 21 21 21 23 24 24 21 20 19 21 20 17 17 18 21 27 32 32 28 25 23 21 19 17 16 16 18 22 25 29 31 32 30 29 27 26 24 22 19 17 14 10 6 3 2 1 1 2 1 1 1 1 2 5 6 6 5 3 3 4 4 4 4 2 1 0 1 2 2 3 4 6 7 9 11 12 14 15
13 15 17 18 18 19 19 20 21 22 23 23 23 23 24 21 19 19 21 22 21 21 22 23 24 28 29 29 26 23 22 20 19 18 18 20 23 27 30 32 32 31 30 29 28 26 24 21 19 16 13 9 5 2 1 1 1 1 1 1 1 1 2 5 6 6 5 3 2 3 4 3 4 3 2 1 2 2 2 3 4 6 7 9 11 13 14 16
12 15 18 19 20 20 20 22 24 26 26 25 23 22 22 20 20 21 22 22 24 25 25 24 25 26 26 25 24 22 21 20 20 21 23 25 28 30 32 32 31 29 28 28 27 25 22 20 17 14 11 8 4 2 1 2 1 1 1 0 0 1 3 5 6 6 6 3 2 1 2 2 3 3 3 3 3 3 3 4 5 7 8 10 11 13 15 17
13 16 18 20 22 23 24 27 28 26 25 22 20 19 19 20 21 22 22 24 27 26 25 24 23 24 23 23 23 22 22 22 23 24 26 28 30 32 32 31 29 28 27 26 25 23 20 18 17 13 10 7 4 3 3 3 3 2 0 1 1 2 4 5 6 6 6 4 2 0 1 1 2 2 3 4 5 6 6 6 7 8 10 11 13 15 16 17
17 18 20 22 24 26 28 27 25 22 20 19 18 18 19 21 21 21 22 26 29 28 25 22 21 21 22 22 23 23 23 25 26 26 27 30 31 32 31 30 28 27 26 25 23 22 19 17 14 11 8 6 5 4 4 4 3 2 1 2 3 4 5 6 6 7 6 5 2 1 2 2 2 3 4 5 6 7 8 8 9 10 12 13 15 16 17 18
19 19 22 23 24 25 25 22 20 19 19 20 21 21 22 22 20 21 25 28 29 27 24 21 21 21 21 22 23 24 25 26 27 27 28 30 31 31 30 29 27 26 24 23 22 20 18 14 12 9 7 6 5 5 5 5 3 1 1 3 4 5 7 7 7 7 7 5 2 1 3 3 4 4 5 6 7 8 9 10 11 12 13 15 16 17 17 18
17 18 19 20 20 22 23 21 20 21 21 23 23 23 22 21 21 24 28 29 27 25 23 21 21 21 21 22 24 25 27 27 27 28 29 29 30 30 29 28 26 25 23 22 20 18 16 13 10 8 7 6 5 5 5 4 3 1 2 4 5 6 7 7 7 7 7 6 3 1 4 4 5 5 6 7 8 9 10 11 12 13 14 15 15 16 16 17
16 17 17 17 18 22 24 24 24 23 24 24 23 23 22 21 23 27 29 27 25 24 23 22 21 20 22 23 25 26 27 27 27 28 28 29 29 29 28 26 24 23 22 21 19 17 14 12 10 8 7 6 5 5 5 4 2 2 3 5 6 7 8 7 7 8 7 6 4 2 4 5 5 6 7 8 9 9 10 11 12 13 14 14 15 15 15 17
19 20 19 19 21 25 26 26 26 25 25 24 23 23 22 23 26 28 28 26 24 24 23 22 20 20 22 24 25 26 26 26 26 26 27 27 28 27 26 24 23 21 20 19 18 16 13 12 10 9 8 7 6 5 5 4 2 3 5 7 7 8 8 7 6 7 6 6 4 4 5 6 7 8 9 9 10 10 11 12 13 13 13 13 14 14 14 16
22 22 21 21 23 25 25 26 26 25 25 24 24 23 23 25 28 28 26 25 25 24 24 22 21 21 23 25 26 26 26 26 25 25 26 26 26 26 25 23 22 20 19 18 16 15 13 12 10 9 8 7 6 6 5 3 3 5 7 8 8 8 7 6 5 5 5 5 5 5 6 7 8 9 10 10 11 11 12 12 13 13 13 13 12 13 14 15
22 22 20 20 21 21 22 24 24 24 24 24 23 23 25 27 28 26 25 25 25 24 23 22 21 21 22 24 26 26 25 25 25 25 25 25 24 24 24 22 21 19 18 17 16 14 13 11 10 9 8 7 6 6 4 3 4 6 7 8 8 6 5 5 5 5 5 5 5 6 7 8 8 8 10 11 11 12 12 13 14 14 13 12 11 12 13 13
21 20 19 19 20 21 21 23 23 23 24 24 23 24 26 27 26 25 25 25 24 24 23 21 20 21 22 24 26 25 25 24 24 24 23 23 23 23 22 20 19 18 16 16 15 13 12 11 10 9 7 7 7 5 4 3 4 6 6 6 6 6 5 5 5 4 4 4 4 5 6 7 8 8 9 10 11 12 12 13 14 14 12 10 10 11 11 12
20 19 18 18 20 21 21 22 22 23 23 23 25 26 25 24 23 23 24 25 25 24 22 21 20 21 22 24 25 25 24 24 23 23 22 22 22 22 20 19 17 16 15 15 13 12 11 11 9 8 7 8 7 5 4 3 4 4 3 3 4 5 5 5 4 3 3 3 3 3 4 6 7 7 8 9 9 10 10 10 10 10 9 8 9 9 10 11
18 18 18 18 19 19 20 21 22 23 24 25 25 24 22 22 22 23 25 26 25 23 21 20 20 21 22 23 24 24 23 23 22 22 21 21 20 19 18 17 16 15 14 13 12 12 11 10 8 7 8 8 7 6 5 3 3 2 1 3 3 4 5 5 4 3 2 2 1 1 3 5 5 6 6 7 7 8 7 7 6 5 5 6 7 9 9 9
17 17 17 18 18 18 19 21 23 24 25 24 23 21 20 21 23 25 26 25 23 22 20 20 20 20 21 22 23 23 23 22 21 20 20 19 18 17 16 15 15 14 13 12 11 10 10 9 8 7 8 8 7 6 6 4 2 1 0 2 2 3 4 4 4 3 3 2 1 2 3 4 5 5 6 6 6 6 5 4 4 3 4 6 7 8 8 7
17 16 16 17 17 17 18 20 22 23 22 21 21 20 21 23 25 26 25 23 21 20 19 19 19 20 20 21 22 22 21 21 20 19 18 17 16 16 15 14 14 13 12 11 10 10 9 8 7 7 8 8 8 7 6 5 3 2 1 0 0 2 3 4 4 4 3 3 2 3 4 4 5 5 5 6 6 5 3 3 3 4 5 6 6 6 6 6
15 15 15 15 16 16 17 18 19 20 19 19 20 21 23 26 27 25 23 20 19 18 18 19 19 19 19 20 20 20 20 20 19 18 17 16 15 15 14 14 13 12 10 10 10 9 8 7 7 7 8 8 8 8 7 6 5 4 3 2 2 2 2 3 4 4 4 4 5 5 6 6 6 6 6 6 5 4 3 4 4 5 5 6 5 5 5 6
13 14 14 14 14 15 15 16 17 17 17 18 20 23 26 27 26 23 21 18 17 17 18 19 19 19 19 18 19 19 19 18 17 17 16 16 15 15 14 13 12 11 10 9 9 9 8 8 8 8 8 9 9 9 8 7 7 6 5 5 5 5 4 4 4 5 6 6 7 7 7 7 7 8 7 7 6 5 5 5 6 6 6 6 6 5 5 5
10 11 12 12 13 13 13 14 15 16 16 18 22 25 27 26 23 21 19 17 17 17 17 18 18 18 18 18 18 18 17 17 16 16 16 16 15 15 14 12 11 10 9 9 10 10 9 8 8 8 8 9 10 10 10 9 8 8 7 7 7 7 7 6 5 6 7 8 8 9 9 8 8 9 9 9 8 8 7 7 7 7 7 7 6 5 5 5
8 9 10 11 12 12 12 12 13 15 16 19 23 26 26 24 22 20 18 17 17 17 16 17 17 17 17 17 17 17 17 16 16 16 16 16 15 14 13 12 11 10 10 10 10 10 10 9 8 9 9 10 11 11 11 10 9 9 9 9 9 9 9 8 7 7 8 9 9 10 10 10 9 9 10 11 11 10 9 9 9 9 9 8 8 6 5 5
8 8 9 10 11 12 12 12 12 14 17 20 24 25 25 23 20 18 17 17 16 16 16 16 16 16 16 16 16 17 16 16 16 15 15 15 15 14 13 12 11 11 11 10 10 10 10 10 10 10 10 11 11 12 12 11 10 10 10 10 10 10 10 10 10 9 9 9 10 10 11 11 10 9 10 11 13 12 11 11 10 11 11 10 9 8 6 6
9 8 8 9 11 12 13 13 13 15 18 21 23 24 23 21 19 17 16 16 15 15 16 16 16 16 16 16 17 16 16 16 15 15 15 15 15 14 13 13 12 12 11 10 10 10 10 10 11 11 11 12 12 13 13 12 11 10 11 11 12 12 12 12 12 11 11 11 10 10 11 11 11 9 9 11 13 13 12 12 12 12 12 11 10 9 7 7
11 10 9 10 11 12 13 14 15 16 18 21 22 22 21 19 18 16 16 15 15 15 16 16 16 17 16 16 17 16 16 15 15 15 15 15 15 14 14 14 13 12 11 11 10 10 11 11 12 12 12 12 13 13 14 13 12 12 12 12 12 13 13 14 14 13 12 12 11 10 10 12 11 9 9 10 12 12 12 13 13 13 12 12 11 10 9 9
11 12 11 12 12 12 13 15 16 17 19 21 21 21 21 19 18 17 16 15 15 15 16 15 15 16 15 15 16 16 16 15 15 16 16 15 15 15 14 13 13 12 12 11 11 11 12 12 12 13 13 13 13 14 14 15 14 13 13 13 13 13 14 15 15 14 14 13 13 11 11 12 11 10 10 11 11 11 11 12 13 13 13 13 12 11 10 11
9 11 12 13 13 14 14 15 16 18 19 21 21 21 21 20 19 18 16 16 15 15 15 15 14 14 15 15 15 16 16 16 16 16 16 16 16 15 14 13 13 12 12 11 11 12 12 13 13 13 13 14 14 14 15 15 15 15 15 14 14 15 15 15 16 15 15 15 14 13 12 12 12 11 10 11 11 11 11 12 12 13 13 12 12 11 12 14
8 9 11 12 12 13 14 15 16 16 18 19 20 21 21 20 20 19 17 16 15 15 15 15 15 15 15 15 16 16 17 17 16 16 16 17 16 16 15 13 12 12 12 12 13 13 13 13 13 14 14 14 14 14 15 15 16 16 16 16 16 16 17 17 17 16 16 16 15 15 14 14 14 14 13 12 12 12 12 12 12 12 12 12 12 12 13 15
8 9 10 10 10 11 13 13 14 15 16 18 19 20 20 20 20 19 17 16 15 15 15 15 16 16 15 15 16 16 16 17 17 17 16 16 16 15 15 14 13 13 13 13 13 13 13 14 14 14 14 14 15 15 15 16 16 17 17 17 18 18 18 18 18 18 17 17 17 16 16 16 16 16 16 15 14 13 14 13 13 13 13 14 14 14 14 15
7 9 10 10 11 11 12 12 13 14 15 16 17 18 19 19 19 19 18 17 15 14 15 15 15 16 16 15 15 16 16 16 17 17 16 16 16 15 15 14 14 14 13 14 14 14 14 14 14 14 14 14 15 15 16 16 17 17 18 18 19 19 20 19 19 18 18 18 18 18 18 18 18 18 18 18 17 17 16 16 16 16 16 17 16 15 15 15
8 9 10 11 11 11 12 12 13 14 14 15 16 17 18 18 18 19 18 17 16 14 14 14 14 15 16 15 15 16 16 16 16 16 16 16 16 15 15 14 14 14 14 14 14 14 14 14 14 14 14 14 15 15 16 17 18 18 18 19 19 20 20 20 20 19 19 19 19 20 20 20 19 19 19 20 20 19 19 19 18 17 18 18 18 16 16 15
8 10 11 11 11 12 12 13 13 14 14 15 16 16 17 17 17 18 17 16 16 15 14 14 14 14 15 15 15 15 16 16 16 16 16 16 16 15 14 14 14 14 14 14 14 14 14 14 13 13 14 14 15 15 16 17 18 18 19 19 19 20 20 21 21 20 20 20 19 20 21 21 22 21 21 21 21 21 21 21 20 19 19 19 19 16 15 15
9 10 11 12 12 12 12 13 13 14 14 14 15 15 15 16 16 16 16 15 15 15 15 14 14 14 14 15 15 15 16 16 16 16 16 16 15 15 14 14 13 14 14 14 14 14 14 13 13 13 13 14 15 15 16 17 18 18 19 19 20 20 20 21 21 21 21 21 20 20 21 23 24 23 22 21 21 22 22 22 21 19 18 19 19 18 16 15
9 11 12 12 12 12 12 13 13 13 14 14 14 14 15 15 15 15 15 15 15 15 15 14 14 14 14 14 15 15 16 16 16 16 16 15 15 14 13 13 13 13 13 13 13 13 13 12 13 13 13 13 14 15 15 16 17 17 17 18 18 19 19 20 20 20 21 20 19 19 20 22 24 24 23 22 21 21 22 21 20 18 17 17 18 19 18 18
10 11 12 13 13 13 13 13 13 13 14 14 14 14 14 13 14 14 14 14 14 15 14 14 14 14 14 15 15 15 16 16 16 16 16 15 15 14 14 13 13 13 13 13 13 13 13 12 12 13 13 13 13 14 14 15 15 15 15 16 16 17 17 18 18 18 18 18 17 16 18 20 22 23 23 21 20 21 21 21 19 17 16 15 16 18 19 20
12 13 13 14 14 14 14 14 14 14 14 14 13 13 13 14 14 14 14 14 14 14 14 14 14 14 15 15 15 16 16 16 16 16 16 16 15 15 14 14 14 13 13 13 13 13 13 13 13 13 13 13 13 14 14 14 15 15 15 15 15 15 15 15 16 17 17 17 15 14 15 17 19 21 22 20 19 20 21 21 19 17 16 15 15 16 19 21
13 14 15 15 16 16 15 15 15 15 14 14 14 14 14 14 14 14 14 14 14 15 15 14 15 15 15 15 16 16 15 16 16 16 16 16 15 15 15 14 14 14 14 13 13 13 13 13 14 14 14 14 14 15 15 15 16 15 15 15 14 14 14 14 14 15 15 15 15 13 13 15 18 20 21 20 19 20 21 21 19 17 16 16 16 17 20 23
14 15 16 17 17 17 17 16 16 16 15 15 15 15 15 15 15 14 14 14 15 15 15 15 15 15 15 15 15 15 16 16 16 16 16 16 16 15 15 15 14 14 14 14 14 14 14 14 15 15 15 16 16 16 16 17 17 17 16 16 15 14 13 13 13 13 13 13 14 13 11 14 18 19 20 19 18 19 21 21 19 17 18 18 20 22 24 26
15 16 17 18 18 18 18 17 17 17 16 16 16 16 16 16 15 15 15 15 15 15 15 15 15 15 15 15 15 16 16 16 16 16 17 16 16 16 16 16 15 15 16 15 15 15 15 16 16 17 17 17 17 17 18 18 17 18 17 16 16 15 14 14 14 14 14 14 15 14 11 14 20 20 19 19 18 20 21 21 21 22 22 23 25 26 28 29
16 17 18 19 19 19 19 18 18 18 17 17 17 16 16 16 16 16 15 15 15 15 15 15 16 16 16 16 16 16 16 16 17 17 17 17 17 16 16 16 16 17 17 17 17 17 17 17 17 18 18 18 19 18 18 18 18 18 18 18 18 17 16 16 16 16 16 16 18 17 13 16 23 22 21 22 21 22 23 23 24 26 26 27 29 30 32 33
18 18 19 19 20 20 20 19 19 18 18 17 17 17 17 16 16 16 16 16 16 15 16 16 16 16 16 16 17 17 17 17 17 18 18 18 17 17 17 17 18 18 18 19 19 18 18 18 18 19 19 19 20 19 19 19 19 19 19 19 19 19 19 19 18 18 18 18 19 18 15 18 23 24 24 24 22 23 24 25 26 27 28 30 32 33 35 36
19 19 20 20 20 20 20 20 19 18 18 18 17 17 17 17 16 16 16 16 16 16 16 16 17 17 17 17 17 17 17 17 18 18 18 18 18 18 18 18 19 19 19 20 20 20 19 19 20 20 20 21 21 20 20 20 20 19 19 19 19 19 20 19 19 19 19 20 19 18 18 20 21 25 28 27 25 25 27 28 29 30 31 33 35 36 38 39
20 20 20 20 20 20 20 20 19 19 18 17 17 17 17 17 16 16 16 16 16 16 17 17 17 17 17 17 17 17 17 17 18 18 18 19 18 18 19 19 20 20 20 21 21 21 20 20 21 22 21 22 22 22 22 21 21 20 20 20 20 20 21 21 20 21 22 23 20 19 22 23 20 26 32 32 30 30 31 32 33 34 35 37 38 40 41 42
20 19 20 20 20 20 19 19 19 18 18 17 17 16 17 16 16 16 16 16 16 17 17 17 17 17 17 17 17 17 17 18 18 18 19 19 19 19 20 20 21 21 21 22 22 22 22 22 22 23 23 24 24 24 24 24 23 22 22 22 23 23 23 23 23 24 26 27 23 22 27 26 23 28 33 34 35 35 35 36 37 38 39 41 42 43 44 45
20 19 19 20 19 19 19 18 18 18 17 17 17 17 17 16 16 16 16 16 16 17 17 17 17 17 17 17 18 18 18 19 19 19 20 20 20 21 21 21 22 22 22 23 23 23 24 23 24 25 25 25 26 26 26 27 26 25 24 24 26 27 27 26 26 27 30 30 27 28 30 29 28 32 35 35 37 38 39 40 40 42 43 44 44 45 45 46
21 20 19 20 19 19 18 18 18 18 17 17 17 17 17 17 17 16 17 17 16 17 17 17 18 18 18 18 19 19 20 20 20 20 21 21 22 22 22 23 23 23 24 24 24 25 26 25 25 26 26 27 28 29 29 29 30 29 27 27 28 29 30 30 29 30 33 33 31 33 34 31 32 37 37 37 38 40 41 42 44 45 46 46 46 47 47 48
22 21 20 20 20 19 19 18 18 18 18 18 18 18 18 18 18 18 18 17 17 17 18 18 18 18 18 19 19 20 21 21 22 22 22 23 23 23 24 24 24 25 25 26 26 26 28 28 27 28 29 28 29 31 32 32 33 32 29 29 31 32 32 32 32 33 35 35 35 37 36 34 37 40 40 40 41 42 43 44 46 47 48 48 49 49 50 51
23 22 22 21 21 21 20 19 19 19 19 20 19 19 19 19 19 19 19 18 18 18 18 19 18 19 19 19 20 20 21 21 22 22 23 23 24 24 25 25 26 26 26 27 27 28 29 30 29 31 32 29 29 32 34 35 37 35 31 31 33 34 34 34 35 36 37 37 38 39 38 38 41 43 43 44 44 44 45 46 47 48 49 50 51 52 53 54
25 24 24 23 23 22 22 21 21 21 21 21 21 21 21 20 20 20 20 20 20 20 20 20 20 20 20 20 21 21 21 21 22 22 23 23 24 24 25 25 26 27 27 28 28 28 30 30 30 32 34 31 31 33 35 37 38 36 33 34 35 35 36 36 37 37 39 40 41 41 41 42 44 45 45 46 46 46 47 47 48 50 51 52 53 54 56 57
Wind_Direction
158 158 156 160 166 169 173 179 190 191 190 188 184 185 185 185 184 177 177 183 184 188 193 193 193 194 194 194 194 195 197 202 211 221 226 222 211 201 197 202 208 205 196 182 168 161 156 151 150 151 148 143 139 136 131 122 115 109 106 100 90 81 63 43 36 45 50 53 83 113 125 131 129 116 103 90 84 85 76 57 35 19 16 20 24 23 19 16
163 169 167 170 178 182 181 183 184 176 179 184 184 183 179 178 176 174 179 182 184 199 209 203 200 198 197 197 197 197 199 207 216 223 224 215 202 196 201 207 203 194 181 169 160 154 152 151 150 150 148 144 140 136 129 121 117 116 112 96 85 82 63 42 35 40 46 56 88 120 134 138 132 118 100 86 86 86 75 57 25 4 357 3 8 8 8 9
163 170 174 178 187 191 186 182 180 177 176 181 184 179 175 174 173 177 185 188 198 220 221 207 203 200 199 199 198 200 205 212 218 222 219 205 196 199 204 199 189 178 168 159 154 152 152 152 149 148 148 144 140 135 129 125 122 112 105 105 92 78 55 34 33 37 45 62 95 126 141 143 136 118 97 79 80 78 64 44 7 359 1 0 360 359 1 4
158 165 175 182 191 198 192 186 183 181 175 176 181 178 174 173 174 181 189 197 211 222 210 202 204 202 200 198 199 204 209 216 220 218 206 194 195 198 194 183 173 166 159 154 152 152 152 151 148 148 148 146 143 141 136 128 123 102 88 110 95 81 46 21 25 31 42 67 104 130 144 148 147 127 106 86 63 53 35 19 3 8 9 3 359 356 357 359
154 161 174 185 194 200 193 187 184 178 172 172 176 176 174 172 176 184 193 206 210 203 185 185 197 199 197 196 199 204 209 214 213 202 190 189 191 185 177 169 162 158 154 153 153 153 153 152 150 150 152 153 151 145 138 129 114 88 80 118 94 84 35 9 12 19 34 65 109 134 146 154 160 148 118 93 42 17 10 3 359 360 358 355 352 350 351 352
152 160 172 181 185 187 185 184 180 172 166 164 166 167 168 171 179 190 203 207 193 169 150 150 164 174 179 184 191 197 198 197 192 183 180 182 178 171 165 160 157 155 154 155 155 156 157 156 154 156 159 159 159 150 143 139 98 78 90 134 107 80 20 0 359 4 21 54 105 136 147 158 172 187 200 67 18 357 350 349 353 350 346 344 343 344 345 346
155 163 171 171 169 172 176 176 170 162 157 154 154 156 161 170 184 197 206 198 171 143 133 136 143 150 156 165 174 179 178 175 173 174 173 170 166 161 158 156 156 156 157 158 158 159 160 159 159 163 166 165 168 160 166 202 118 101 122 141 140 52 359 350 347 350 2 30 90 139 148 157 179 205 242 287 326 328 334 338 341 337 334 336 337 338 341 343
161 168 170 167 166 168 167 163 158 154 151 148 148 153 161 173 187 197 198 180 153 138 134 134 136 139 142 151 158 163 167 167 168 169 166 163 160 158 157 157 158 159 160 161 161 162 163 162 165 171 173 174 179 177 214 228 201 185 150 123 270 334 342 336 333 337 345 2 48 136 153 157 186 210 243 273 294 303 312 320 324 325 328 330 332 336 339 342
156 163 165 166 165 160 155 153 152 150 147 145 149 157 166 177 186 190 181 160 146 142 140 135 134 136 142 150 156 161 165 166 165 164 162 160 159 158 159 159 160 162 164 164 163 165 168 169 171 177 178 182 187 184 209 222 207 195 183 324 300 319 327 322 319 326 333 339 5 75 187 186 218 232 247 263 278 290 300 309 315 319 323 326 330 335 338 340
146 148 152 156 154 151 149 149 148 146 145 149 159 167 172 178 182 177 163 150 147 147 143 137 136 140 148 154 158 161 163 163 162 162 162 161 161 160 161 161 163 165 166 167 168 170 175 176 176 179 184 190 190 192 207 210 199 193 282 308 302 313 316 313 312 318 323 326 345 328 241 233 254 260 259 267 277 286 294 301 307 313 318 323 329 334 336 337
140 141 144 147 146 147 148 147 146 147 152 161 169 171 172 177 173 162 153 149 149 147 142 140 141 146 152 156 159 161 162 162 161 162 162 163 164 164 164 165 166 168 169 171 173 176 180 182 183 188 197 197 194 204 209 200 193 208 292 297 302 309 308 308 309 311 315 318 332 310 260 251 258 267 272 278 282 287 291 295 301 308 314 321 328 332 333 334
137 139 140 142 148 153 151 150 152 154 161 167 170 170 173 173 162 153 151 150 149 144 141 144 148 153 157 159 160 162 162 160 161 162 164 166 167 167 168 169 169 171 172 175 179 183 186 189 194 203 207 200 199 207 204 197 205 246 291 298 303 306 305 305 305 305 309 310 314 284 266 265 264 271 280 284 285 288 291 295 299 305 312 321 326 327 328 331
138 141 141 143 157 163 158 156 158 160 165 168 170 172 173 165 153 151 150 149 148 144 145 149 154 159 160 162 163 163 162 160 162 163 165 168 170 171 172 172 172 174 176 180 184 189 194 198 207 216 211 202 203 203 202 204 219 262 289 299 305 306 304 302 301 303 305 303 301 278 266 270 272 276 281 284 285 288 291 295 298 304 311 318 321 323 325 329
141 143 144 147 155 161 159 159 160 163 166 170 172 171 166 157 150 149 149 150 149 146 150 154 158 162 163 164 165 163 162 160 162 164 166 169 172 174 175 175 176 179 181 185 189 195 201 207 214 217 207 204 204 199 201 209 235 278 294 302 306 306 304 302 300 303 304 300 296 286 277 275 275 276 277 279 282 286 289 293 298 302 308 313 317 320 322 329
137 138 143 147 150 154 156 159 163 166 169 169 168 164 158 152 150 150 151 152 150 150 154 157 161 164 165 167 165 163 162 161 163 164 166 169 172 174 176 178 180 183 187 191 196 199 204 210 213 209 202 202 200 193 197 216 264 291 300 304 306 307 308 312 316 316 314 309 300 293 290 286 281 277 274 275 279 284 287 292 297 301 305 311 314 315 319 328
132 135 142 148 150 152 155 160 164 166 165 163 161 158 154 151 152 154 154 154 153 154 157 159 162 165 167 168 166 164 163 163 164 164 166 169 172 174 176 179 181 185 190 194 199 201 203 207 207 203 199 195 190 187 197 235 278 297 304 306 311 323 336 335 336 338 332 324 312 305 303 298 293 288 279 276 278 281 284 290 294 297 302 307 308 309 316 326
130 135 141 145 146 148 152 156 159 159 158 157 156 153 151 152 156 157 157 157 157 158 159 160 164 166 168 169 168 166 165 165 166 165 167 169 171 173 174 176 180 183 189 194 198 200 200 200 200 199 193 189 186 185 204 246 286 301 307 314 325 345 4 357 344 339 334 333 324 315 311 304 302 298 288 283 282 282 286 289 291 295 300 301 300 306 315 323
131 135 139 140 141 144 147 150 153 154 154 154 152 151 153 157 160 160 159 159 159 160 161 163 166 168 169 171 170 169 167 167 168 169 170 170 173 173 172 174 179 183 189 192 195 196 196 195 195 193 188 188 189 193 214 250 288 298 311 349 360 10 22 17 9 359 344 343 338 322 309 301 297 293 288 287 285 287 289 290 293 298 300 297 297 306 315 321
127 133 135 136 138 139 141 144 148 149 150 151 152 154 158 160 160 160 160 160 161 162 163 166 169 170 171 173 173 172 170 171 172 173 172 173 175 175 175 177 181 186 188 189 190 192 192 191 191 189 189 192 196 207 223 250 287 294 359 31 29 36 41 35 30 32 22 8 350 304 288 289 288 286 284 284 286 288 288 288 294 301 297 294 299 307 315 323
120 126 131 134 135 136 138 142 145 148 150 152 156 158 160 159 159 159 159 160 162 164 165 168 171 172 172 174 174 174 174 175 176 177 176 177 179 180 181 181 184 185 184 185 187 190 191 190 193 193 195 201 206 217 230 250 280 278 55 40 38 40 44 39 31 27 24 16 332 281 275 278 283 286 284 280 281 282 282 285 285 283 286 290 298 306 317 328
119 122 127 133 137 140 143 146 149 152 155 157 160 159 158 158 157 157 159 161 162 165 168 170 172 173 173 173 174 176 177 178 179 179 179 182 185 186 185 183 182 181 183 186 188 193 194 195 201 203 206 212 217 225 233 244 254 238 219 209 55 34 34 29 20 11 2 346 316 290 276 273 277 281 279 275 277 276 272 266 257 265 282 288 294 305 319 334
120 122 126 133 139 142 147 152 154 157 160 162 161 159 158 157 158 159 160 161 164 167 170 172 173 172 172 173 174 176 179 180 181 182 182 185 188 187 184 181 181 181 185 190 192 198 202 204 211 214 217 222 226 231 235 240 243 236 231 235 252 311 347 357 357 353 346 334 319 301 283 274 271 271 270 271 273 267 255 251 255 270 283 286 294 307 323 334
123 124 127 132 138 142 147 153 156 159 163 163 161 160 159 159 160 160 160 163 167 170 172 173 173 171 171 172 174 176 179 180 182 183 184 186 187 185 181 180 182 184 188 194 199 205 210 214 219 223 226 231 233 234 236 241 243 240 239 246 261 283 302 316 325 329 330 324 321 311 294 281 271 267 265 265 263 253 248 253 261 272 280 285 292 302 314 323
127 127 130 135 138 142 146 152 157 160 162 162 162 162 161 161 161 160 162 166 169 172 174 174 173 172 172 173 175 176 177 179 181 182 184 185 184 183 181 182 184 187 193 200 208 213 217 220 224 231 236 239 240 238 238 241 245 248 248 252 263 274 286 297 305 312 315 314 316 315 306 294 279 266 260 257 254 248 247 253 260 268 273 279 284 289 297 308
132 135 138 141 143 144 147 154 160 162 163 165 165 165 164 163 162 163 167 169 170 174 176 176 175 175 175 176 177 178 179 181 182 183 185 185 183 183 183 186 188 194 201 209 216 221 223 226 231 238 242 245 245 243 242 243 247 254 256 260 266 271 279 288 295 302 306 306 309 313 311 302 286 270 261 255 250 247 248 251 255 261 267 272 274 275 281 296
139 147 149 149 150 150 150 156 164 166 167 168 168 168 167 165 166 168 171 171 171 174 176 178 180 181 181 181 182 183 184 185 185 186 187 187 186 186 188 193 197 202 209 216 223 228 230 233 238 243 246 249 249 246 245 247 250 256 261 265 269 273 278 284 289 294 298 299 301 307 309 303 291 275 264 256 252 249 248 250 251 253 259 263 263 262 268 282
145 155 160 158 157 157 157 161 167 170 170 171 172 172 170 169 171 173 174 174 175 177 178 181 185 187 188 189 188 189 190 190 190 191 191 191 191 192 196 202 206 209 216 223 230 233 236 240 243 248 252 253 252 249 247 248 253 258 263 268 272 277 280 282 286 288 291 292 294 299 304 302 296 283 265 255 253 250 247 249 248 247 249 250 248 249 256 272
149 157 166 168 166 165 166 167 170 173 173 173 174 175 174 174 177 179 179 180 182 183 183 187 190 192 194 196 196 196 196 196 196 196 197 197 198 200 204 207 211 215 221 228 234 239 242 243 246 251 255 256 254 251 249 249 253 258 264 269 273 277 279 281 283 284 285 286 287 290 294 296 298 292 273 258 252 250 246 245 245 244 242 240 240 245 255 273
152 157 164 170 173 173 174 173 174 176 176 176 177 179 179 181 184 186 186 186 189 190 192 194 196 197 201 202 201 202 202 202 202 201 201 202 204 207 211 213 216 221 227 234 239 242 244 245 247 251 255 257 255 251 250 250 253 258 262 267 273 276 278 279 280 281 281 281 282 282 282 287 291 290 279 265 256 253 248 244 242 240 238 238 241 251 266 283
155 159 163 169 173 175 176 176 176 178 178 179 181 183 185 188 191 192 193 194 197 199 201 203 204 204 207 208 207 208 208 207 207 206 205 207 210 213 216 219 222 228 234 240 243 244 246 248 250 252 254 255 254 252 251 252 254 259 262 267 273 276 278 278 279 279 278 278 278 276 274 276 279 280 275 265 259 255 250 247 244 242 241 244 250 263 277 290
161 163 166 170 170 172 175 176 176 178 181 182 184 187 190 194 198 200 201 201 203 207 209 211 212 211 212 213 212 211 212 212 212 211 210 212 214 217 221 224 228 235 240 244 246 247 248 250 251 253 254 254 254 253 253 255 257 260 264 268 272 275 277 277 277 277 276 275 275 272 269 268 269 271 268 261 257 254 252 251 249 247 248 250 258 271 284 294
168 171 174 175 173 173 174 176 177 179 183 185 188 191 194 199 204 206 208 209 211 213 213 214 216 216 217 217 216 215 216 216 215 215 215 215 218 221 224 228 233 240 245 246 247 248 249 251 252 254 255 256 256 256 257 258 260 263 265 268 270 273 274 275 275 275 275 274 273 270 267 264 263 264 264 261 258 255 255 254 253 254 256 260 266 277 286 293
180 181 181 180 179 179 178 177 179 181 184 187 190 194 198 203 206 210 214 216 218 219 216 216 218 219 221 221 220 219 219 219 218 217 217 218 220 223 227 232 237 242 247 248 248 248 249 252 254 256 258 259 260 261 263 263 264 265 266 268 270 271 273 274 274 274 273 272 272 271 268 266 264 262 262 262 259 257 257 257 258 261 266 269 274 281 287 291
190 191 189 187 184 183 182 182 182 184 185 188 192 196 201 206 209 213 217 220 222 224 223 223 223 223 223 223 222 222 220 220 220 218 219 219 221 224 229 234 239 244 248 249 249 249 251 254 257 260 263 265 266 267 268 268 268 269 269 270 271 271 273 274 274 273 272 270 270 271 270 269 267 264 262 262 262 263 264 265 267 270 273 276 278 283 287 288
200 199 197 195 191 188 186 186 186 187 188 191 194 197 203 209 212 215 220 221 223 226 228 229 229 227 226 225 224 223 222 221 220 219 219 221 223 227 232 237 241 245 248 250 251 252 254 258 261 264 268 271 273 274 274 274 274 274 273 273 273 273 274 274 274 273 272 271 270 270 271 271 269 267 264 264 265 266 268 269 271 275 278 282 285 287 287 286
207 208 205 203 199 195 194 192 191 191 192 195 199 202 207 211 213 217 222 224 224 227 230 231 231 229 228 226 225 224 223 221 221 221 221 223 226 229 235 240 244 247 249 250 253 255 259 263 266 270 274 277 279 280 280 279 279 279 278 277 276 276 275 275 275 274 273 272 270 269 270 270 270 270 269 268 267 266 267 268 270 274 278 282 286 289 289 287
213 214 213 211 207 204 202 200 199 198 199 202 204 207 210 213 216 219 224 226 227 229 230 231 232 231 229 227 224 223 223 222 222 222 224 227 230 233 238 243 247 249 250 252 254 258 262 267 271 274 277 279 281 283 283 284 284 284 282 281 279 278 277 277 277 276 275 274 272 270 268 269 271 272 271 270 269 268 269 270 271 274 274 277 283 288 290 290
218 219 219 218 215 213 211 210 208 206 207 209 209 211 214 217 220 222 225 228 229 230 232 231 232 231 229 227 224 223 223 223 224 225 228 231 235 238 242 245 248 250 251 253 255 259 263 267 270 273 277 279 282 284 286 288 288 288 288 287 284 282 280 279 279 279 278 277 276 273 269 268 270 272 273 272 271 271 272 274 275 276 275 275 279 283 286 289
220 222 222 222 221 219 217 216 214 214 214 215 215 217 219 221 224 225 226 229 230 232 232 232 231 231 230 227 225 224 224 225 226 228 231 235 239 242 246 247 249 250 251 253 256 260 264 266 268 271 275 279 282 284 286 289 289 290 291 291 289 287 284 282 281 281 281 280 278 276 273 271 270 272 275 275 275 274 275 276 279 280 278 274 272 272 275 280
221 223 223 224 224 222 221 220 219 218 219 220 221 223 224 225 227 229 229 230 232 233 233 233 233 232 231 229 227 227 228 228 229 231 234 238 242 245 249 250 250 249 250 252 257 260 263 265 268 272 275 278 281 284 285 287 289 290 291 291 291 290 288 287 285 284 283 282 280 277 274 272 272 273 275 276 277 278 279 279 279 279 279 277 275 273 272 275
223 224 224 225 225 223 223 223 223 222 223 224 225 226 227 228 228 230 231 232 234 235 235 235 235 234 233 232 230 230 231 232 233 235 237 240 243 247 250 251 250 250 250 253 257 260 262 266 270 273 276 279 281 282 284 285 287 287 288 289 289 289 289 288 286 286 284 283 283 280 274 273 272 270 272 276 278 278 278 279 281 283 285 284 283 281 280 281
227 226 225 225 224 223 223 224 224 225 224 225 227 227 228 229 229 231 232 234 235 236 238 238 237 237 236 235 234 233 233 234 235 236 239 242 245 247 249 251 251 251 251 255 259 262 264 267 271 274 277 279 280 281 283 283 284 284 285 285 285 285 285 283 282 282 281 282 281 280 279 278 275 273 274 277 279 279 281 284 287 289 289 287 285 285 286 288
230 229 227 226 225 223 223 224 225 226 225 226 227 228 229 230 231 232 233 235 236 237 239 240 240 239 238 238 237 237 236 236 237 238 241 243 245 247 249 251 252 252 254 257 260 263 265 267 271 274 277 279 280 281 281 282 283 283 283 283 282 283 282 281 281 280 280 281 280 280 282 279 278 280 281 280 280 281 283 285 285 285 286 286 285 286 287 290
230 230 229 228 227 225 224 225 226 227 227 227 229 230 230 231 232 233 235 237 238 239 241 241 241 240 240 240 239 238 238 238 238 240 242 245 246 248 249 251 252 254 257 259 262 264 266 268 271 274 278 280 281 281 281 281 281 281 281 281 281 282 281 281 281 281 281 280 279 283 285 280 280 284 284 282 282 283 283 283 283 282 283 283 284 286 288 290
229 229 229 229 228 226 226 227 228 229 229 229 230 232 232 233 234 235 237 239 240 241 242 242 242 241 241 241 241 240 240 240 241 242 244 246 247 249 250 252 254 256 259 261 264 266 268 270 273 275 277 278 279 280 280 281 281 280 280 279 279 280 280 280 280 281 280 277 278 286 285 280 283 286 284 285 285 285 285 285 284 284 285 285 285 287 289 290
230 229 229 230 230 228 228 229 230 230 232 232 233 234 234 235 238 238 240 242 242 243 243 242 242 242 242 243 243 243 243 243 243 244 246 247 249 250 251 254 256 258 261 263 265 267 269 272 274 276 278 278 278 278 278 279 279 279 279 280 279 278 278 279 280 282 281 277 280 287 282 280 286 286 284 286 288 287 287 287 287 287 287 287 288 289 290 292
231 230 230 229 230 230 230 231 232 232 235 235 236 238 238 239 241 243 243 244 245 245 244 244 244 244 244 244 244 245 245 245 246 247 248 250 251 252 254 256 258 260 263 265 268 270 271 272 275 277 279 280 280 279 278 278 279 279 279 281 281 280 280 281 282 283 282 280 283 286 281 282 289 286 284 287 289 290 290 290 290 289 289 289 290 291 292 292
232 232 232 231 231 232 233 234 235 236 238 239 239 241 242 242 244 246 247 247 247 248 247 247 247 246 246 247 247 247 248 248 249 249 250 252 253 255 256 258 260 263 265 267 270 272 272 274 276 278 279 280 280 280 279 279 279 280 281 283 284 284 284 284 285 286 284 284 287 286 282 285 288 284 283 286 288 289 290 290 290 289 289 290 291 292 293 293
233 233 234 234 234 235 236 238 238 239 241 242 243 243 244 245 247 247 249 249 250 251 250 250 250 250 250 250 250 251 251 251 252 253 253 254 255 257 258 261 263 265 267 269 272 273 274 275 277 277 278 280 281 281 280 280 280 281 283 286 286 286 286 287 287 287 286 288 289 287 286 289 287 284 284 286 286 287 288 289 290 290 291 292 292 294 294 295
234 234 235 235 236 237 238 240 240 242 243 244 245 246 246 248 250 251 251 252 252 254 254 254 254 254 254 254 254 255 255 255 256 257 257 258 260 261 262 264 266 268 270 272 274 275 276 276 277 278 277 278 281 282 282 282 281 281 285 289 287 287 288 288 288 288 288 289 288 287 289 290 287 286 287 287 287 288 288 289 290 291 292 293 295 296 295 295
235 235 236 236 237 239 239 241 242 243 245 245 246 247 248 248 250 251 252 252 253 254 255 256 256 256 257 258 258 258 259 259 260 261 261 262 264 265 267 268 269 271 273 275 276 277 277 278 279 279 278 279 281 281 283 283 282 283 287 288 287 287 289 289 288 289 289 289 288 288 290 289 287 287 289 288 288 289 289 289 290 291 292 293 294 294 294 293
236 237 237 236 237 239 240 242 243 244 245 246 246 247 248 249 250 251 251 253 253 254 256 257 257 258 259 260 260 261 262 262 263 264 265 265 266 268 269 270 272 273 274 276 277 278 279 280 281 280 280 280 281 281 282 281 280 283 287 286 286 288 288 288 288 289 289 288 288 290 290 289 288 289 289 289 290 290 290 291 292 292 292 292 292 292 292 292
Height
5775 5777 5779 5781 5784 5785 5787 5788 5789 5790 5792 5793 5795 5797 5799 5802 5804 5807 5809 5812 5814 5817 5819 5821 5823 5825 5827 5829 5831 5833 5835 5837 5839 5840 5842 5843 5844 5846 5847 5848 5849 5850 5851 5852 5853 5855 5857 5859 5861 5862 5863 5863 5864 5864 5865 5865 5865 5865 5865 5865 5864 5864 5863 5863 5862 5861 5861 5860 5860 5859 5859 5859 5859 5858 5858 5857 5857 5857 5856 5856 5856 5855 5855 5854 5854 5853 5852 5851
5776 5777 5779 5781 5783 5784 5786 5787 5788 5789 5791 5793 5795 5796 5798 5801 5803 5806 5809 5812 5814 5816 5818 5820 5821 5823 5826 5828 5830 5833 5835 5836 5838 5840 5841 5843 5844 5845 5846 5848 5848 5850 5851 5853 5854 5855 5857 5859 5861 5863 5864 5864 5864 5864 5865 5865 5865 5865 5865 5864 5864 5863 5863 5862 5862 5861 5860 5860 5859 5859 5859 5859 5858 5858 5857 5857 5857 5857 5856 5856 5856 5855 5855 5854 5854 5853 5852 5851
5777 5778 5779 5780 5782 5783 5784 5786 5787 5788 5791 5793 5795 5797 5798 5800 5803 5806 5809 5812 5813 5814 5816 5817 5819 5821 5824 5827 5830 5833 5834 5836 5838 5839 5841 5842 5843 5845 5846 5847 5848 5850 5851 5853 5855 5856 5858 5860 5861 5862 5864 5864 5864 5865 5865 5865 5865 5865 5864 5864 5863 5863 5862 5862 5861 5861 5860 5859 5859 5859 5859 5859 5858 5858 5857 5857 5857 5856 5856 5856 5856 5855 5855 5854 5854 5853 5852 5851
5777 5778 5779 5781 5782 5783 5784 5786 5787 5789 5790 5792 5795 5797 5798 5800 5803 5807 5809 5812 5813 5813 5814 5815 5817 5820 5824 5827 5830 5833 5834 5836 5838 5839 5841 5842 5843 5844 5845 5847 5848 5850 5852 5854 5856 5858 5859 5861 5861 5862 5864 5864 5865 5865 5865 5865 5864 5864 5863 5863 5862 5862 5862 5862 5861 5860 5860 5859 5859 5859 5858 5858 5858 5857 5857 5857 5856 5856 5856 5855 5855 5855 5854 5854 5853 5852 5851 5850
5776 5778 5780 5781 5782 5783 5784 5786 5787 5789 5790 5792 5794 5797 5799 5801 5804 5807 5809 5811 5812 5813 5813 5814 5816 5819 5823 5827 5830 5833 5835 5836 5838 5839 5840 5841 5843 5844 5845 5847 5848 5850 5852 5854 5856 5858 5860 5861 5861 5862 5863 5864 5864 5865 5864 5864 5864 5863 5863 5862 5862 5862 5861 5861 5860 5860 5859 5859 5858 5858 5858 5858 5857 5857 5857 5857 5856 5856 5855 5855 5855 5854 5854 5853 5852 5852 5851 5850
5776 5778 5779 5781 5782 5783 5784 5786 5787 5789 5791 5793 5795 5797 5799 5802 5805 5807 5809 5811 5812 5813 5813 5814 5816 5818 5822 5826 5830 5833 5835 5837 5838 5839 5840 5841 5843 5844 5845 5847 5849 5851 5853 5854 5856 5858 5859 5860 5861 5862 5863 5864 5864 5864 5864 5864 5863 5863 5862 5862 5862 5861 5861 5861 5860 5859 5859 5858 5858 5858 5857 5857 5857 5857 5857 5857 5856 5856 5855 5855 5855 5854 5854 5853 5852 5852 5851 5850
5777 5778 5780 5781 5782 5783 5784 5785 5787 5789 5791 5793 5795 5797 5800 5803 5805 5807 5808 5810 5812 5813 5814 5816 5818 5820 5822 5826 5830 5833 5835 5836 5838 5839 5840 5842 5843 5845 5846 5848 5850 5852 5853 5855 5856 5858 5859 5860 5861 5862 5863 5863 5864 5864 5863 5863 5862 5862 5862 5862 5861 5861 5860 5860 5860 5859 5858 5858 5857 5857 5857 5857 5857 5857 5856 5856 5856 5856 5855 5855 5855 5854 5854 5853 5852 5852 5850 5849
5777 5778 5780 5781 5782 5783 5784 5786 5788 5790 5792 5794 5796 5799 5801 5803 5805 5807 5808 5811 5812 5814 5816 5818 5820 5821 5824 5827 5830 5833 5835 5836 5838 5839 5841 5842 5844 5845 5847 5849 5851 5853 5854 5855 5856 5858 5859 5860 5861 5862 5862 5863 5863 5863 5862 5862 5862 5862 5862 5861 5861 5860 5860 5860 5859 5859 5858 5857 5857 5856 5856 5856 5856 5856 5856 5856 5856 5855 5855 5855 5854 5854 5854 5853 5852 5851 5850 5848
5778 5779 5780 5781 5782 5783 5785 5787 5789 5791 5793 5795 5797 5800 5802 5804 5805 5807 5809 5811 5813 5815 5818 5819 5821 5822 5825 5828 5831 5833 5835 5836 5838 5839 5841 5843 5844 5846 5848 5850 5852 5853 5855 5856 5857 5858 5859 5860 5861 5862 5862 5862 5862 5862 5862 5862 5862 5861 5861 5860 5860 5860 5859 5859 5859 5858 5857 5856 5856 5856 5855 5855 5855 5856 5856 5855 5855 5855 5855 5854 5854 5853 5853 5852 5851 5850 5849 5847
5779 5780 5781 5782 5783 5785 5787 5788 5790 5792 5794 5796 5798 5801 5802 5804 5806 5808 5810 5812 5814 5817 5819 5820 5822 5824 5826 5829 5831 5833 5835 5836 5838 5840 5842 5843 5845 5847 5848 5850 5852 5854 5855 5856 5857 5858 5860 5860 5861 5861 5861 5861 5861 5861 5861 5861 5861 5861 5860 5860 5860 5859 5859 5858 5858 5857 5856 5855 5855 5855 5855 5855 5855 5855 5855 5855 5854 5854 5854 5853 5853 5852 5852 5851 5850 5849 5848 5846
5780 5781 5782 5784 5785 5787 5788 5790 5792 5793 5795 5797 5799 5801 5803 5805 5807 5809 5811 5813 5815 5817 5819 5821 5823 5825 5828 5830 5832 5834 5836 5837 5839 5840 5842 5844 5846 5847 5849 5851 5852 5854 5855 5857 5858 5859 5860 5860 5861 5861 5861 5861 5861 5861 5861 5860 5860 5860 5859 5859 5859 5858 5858 5858 5857 5856 5855 5855 5854 5854 5854 5854 5854 5854 5854 5854 5854 5853 5853 5853 5852 5851 5851 5850 5849 5848 5847 5845
5781 5783 5784 5786 5787 5788 5790 5791 5793 5794 5796 5798 5800 5802 5804 5806 5808 5810 5812 5814 5817 5818 5820 5822 5824 5827 5829 5831 5833 5835 5836 5838 5839 5841 5843 5844 5846 5848 5849 5851 5852 5854 5855 5856 5858 5859 5860 5860 5860 5860 5860 5860 5860 5860 5860 5860 5859 5859 5859 5859 5858 5858 5857 5857 5856 5855 5854 5854 5853 5854 5853 5853 5853 5853 5853 5853 5853 5852 5852 5851 5851 5850 5849 5849 5848 5847 5846 5844
5783 5784 5785 5787 5788 5790 5791 5792 5793 5795 5797 5800 5802 5804 5805 5807 5809 5811 5813 5816 5818 5820 5822 5824 5826 5828 5830 5832 5834 5836 5837 5838 5840 5841 5843 5845 5847 5848 5849 5851 5852 5854 5855 5856 5858 5859 5859 5859 5859 5860 5860 5860 5860 5859 5859 5859 5859 5858 5858 5858 5858 5857 5856 5856 5855 5854 5853 5853 5853 5853 5853 5852 5852 5852 5852 5852 5851 5851 5851 5850 5850 5849 5848 5848 5847 5846 5845 5844
5784 5785 5786 5788 5789 5790 5791 5793 5795 5797 5799 5801 5803 5804 5806 5808 5810 5812 5815 5817 5819 5821 5823 5825 5827 5829 5831 5833 5835 5836 5838 5839 5840 5842 5844 5845 5847 5848 5850 5851 5852 5854 5855 5856 5857 5858 5858 5859 5859 5859 5859 5859 5859 5859 5858 5858 5858 5858 5858 5857 5857 5856 5855 5855 5854 5853 5853 5852 5852 5852 5852 5852 5851 5851 5851 5851 5850 5850 5849 5849 5848 5848 5847 5847 5846 5845 5844 5843
5786 5787 5788 5789 5790 5791 5793 5794 5796 5798 5800 5802 5804 5805 5808 5810 5812 5814 5816 5818 5820 5822 5824 5826 5828 5830 5832 5833 5835 5837 5838 5839 5841 5842 5844 5845 5847 5848 5849 5851 5852 5854 5855 5856 5856 5857 5857 5858 5858 5858 5859 5859 5858 5858 5858 5858 5858 5857 5857 5856 5856 5855 5854 5854 5853 5852 5852 5851 5851 5851 5851 5851 5850 5850 5850 5850 5849 5849 5848 5847 5847 5847 5846 5846 5845 5844 5843 5842
5788 5788 5789 5791 5792 5794 5795 5796 5798 5800 5801 5803 5805 5807 5809 5811 5813 5816 5817 5819 5821 5822 5825 5826 5828 5830 5832 5834 5835 5837 5838 5840 5841 5843 5844 5845 5847 5848 5849 5851 5852 5853 5854 5855 5856 5856 5856 5857 5858 5858 5858 5858 5858 5857 5857 5857 5857 5857 5856 5856 5855 5854 5853 5852 5852 5851 5851 5851 5851 5850 5850 5850 5849 5849 5849 5849 5848 5848 5847 5846 5846 5845 5845 5845 5844 5843 5842 5841
5790 5790 5791 5792 5794 5795 5797 5798 5800 5801 5803 5804 5806 5808 5811 5813 5815 5817 5818 5820 5822 5824 5826 5827 5829 5831 5832 5834 5835 5837 5838 5840 5841 5843 5844 5845 5847 5848 5849 5850 5851 5852 5853 5854 5854 5855 5856 5856 5857 5857 5857 5857 5857 5857 5857 5857 5857 5856 5856 5855 5854 5853 5852 5851 5851 5851 5851 5850 5850 5850 5849 5849 5848 5848 5848 5847 5847 5847 5846 5845 5845 5844 5844 5844 5843 5842 5841 5840
5792 5792 5793 5794 5796 5797 5798 5800 5801 5803 5804 5806 5808 5810 5813 5815 5816 5818 5819 5821 5823 5825 5826 5828 5829 5831 5833 5834 5836 5837 5838 5840 5841 5843 5844 5845 5847 5847 5848 5850 5851 5851 5852 5853 5854 5854 5855 5856 5856 5856 5856 5856 5856 5857 5857 5857 5857 5856 5855 5854 5853 5853 5852 5851 5851 5850 5850 5850 5849 5849 5848 5848 5847 5847 5847 5846 5846 5845 5845 5844 5844 5843 5843 5842 5842 5841 5840 5839
5794 5795 5796 5797 5798 5799 5800 5801 5803 5804 5806 5808 5810 5812 5814 5816 5817 5819 5821 5822 5824 5826 5827 5829 5830 5831 5833 5834 5836 5837 5838 5840 5841 5843 5844 5845 5846 5847 5848 5849 5850 5850 5851 5852 5853 5854 5855 5855 5855 5855 5855 5856 5856 5856 5856 5856 5856 5856 5855 5854 5853 5853 5852 5851 5851 5850 5850 5849 5849 5848 5847 5847 5846 5846 5846 5845 5845 5844 5844 5843 5843 5842 5842 5841 5841 5840 5840 5839
5797 5797 5798 5799 5800 5801 5802 5803 5805 5806 5808 5810 5812 5814 5815 5817 5818 5820 5822 5823 5825 5826 5828 5829 5830 5832 5833 5834 5836 5837 5838 5840 5841 5843 5844 5845 5846 5847 5848 5848 5849 5850 5851 5852 5852 5853 5854 5854 5854 5855 5855 5855 5855 5856 5856 5856 5855 5855 5854 5854 5853 5853 5852 5851 5851 5850 5850 5849 5848 5847 5847 5846 5845 5845 5845 5844 5844 5843 5843 5842 5842 5841 5841 5841 5840 5839 5839 5838
5800 5800 5800 5801 5802 5803 5804 5805 5807 5808 5810 5812 5813 5815 5816 5818 5819 5821 5823 5824 5826 5827 5828 5829 5831 5832 5833 5834 5836 5837 5838 5840 5841 5842 5843 5844 5845 5846 5847 5848 5849 5850 5850 5851 5852 5852 5853 5853 5854 5854 5854 5855 5855 5855 5855 5855 5855 5854 5854 5854 5853 5852 5852 5851 5850 5850 5849 5848 5848 5847 5846 5845 5845 5844 5843 5843 5842 5842 5842 5841 5841 5840 5840 5840 5839 5838 5838 5837
5802 5802 5803 5803 5804 5805 5806 5807 5808 5810 5811 5812 5814 5815 5817 5818 5820 5822 5823 5825 5826 5828 5829 5830 5831 5832 5833 5834 5836 5837 5838 5839 5841 5842 5843 5844 5845 5846 5847 5848 5848 5849 5850 5851 5851 5852 5852 5853 5853 5853 5853 5854 5854 5854 5854 5854 5854 5854 5853 5853 5852 5852 5851 5850 5850 5849 5848 5848 5847 5846 5845 5844 5844 5843 5842 5842 5841 5841 5840 5840 5840 5840 5839 5839 5838 5837 5837 5836
5804 5804 5805 5805 5806 5807 5808 5809 5810 5811 5812 5813 5814 5816 5818 5819 5821 5823 5824 5826 5827 5828 5829 5830 5831 5832 5833 5835 5836 5837 5838 5839 5840 5842 5843 5844 5845 5846 5847 5847 5848 5849 5849 5850 5851 5851 5851 5852 5852 5852 5852 5852 5853 5853 5853 5853 5853 5853 5853 5852 5852 5851 5850 5850 5849 5848 5847 5847 5846 5845 5844 5843 5842 5842 5841 5841 5840 5840 5839 5839 5839 5838 5838 5838 5837 5836 5836 5835
5805 5806 5806 5806 5807 5808 5809 5810 5811 5812 5813 5814 5815 5817 5819 5820 5822 5823 5825 5826 5827 5829 5830 5831 5832 5833 5834 5835 5836 5837 5838 5839 5840 5841 5842 5843 5844 5845 5846 5847 5847 5848 5849 5849 5850 5850 5850 5850 5851 5851 5851 5851 5851 5852 5852 5852 5852 5852 5852 5851 5850 5850 5849 5849 5848 5847 5846 5846 5845 5844 5843 5842 5841 5840 5840 5839 5839 5839 5838 5838 5837 5837 5837 5837 5836 5835 5834 5833
5806 5807 5807 5808 5808 5809 5810 5811 5812 5813 5814 5815 5817 5818 5820 5821 5823 5824 5825 5827 5828 5829 5830 5831 5832 5833 5834 5835 5836 5837 5838 5839 5840 5841 5842 5843 5844 5845 5846 5846 5847 5847 5848 5848 5849 5849 5849 5849 5849 5849 5850 5850 5850 5850 5850 5851 5851 5850 5850 5850 5849 5849 5848 5848 5847 5846 5845 5844 5843 5842 5841 5840 5839 5839 5838 5838 5837 5837 5837 5837 5836 5836 5836 5835 5835 5834 5833 5832
5807 5808 5808 5808 5809 5810 5810 5811 5813 5814 5815 5816 5818 5819 5821 5822 5824 5825 5826 5827 5828 5829 5830 5831 5832 5833 5834 5835 5836 5837 5838 5839 5840 5841 5842 5842 5843 5844 5845 5845 5846 5847 5847 5847 5848 5848 5848 5848 5848 5848 5848 5848 5849 5849 5849 5849 5849 5849 5849 5848 5848 5847 5847 5846 5846 5845 5844 5843 5842 5841 5840 5839 5838 5837 5836 5836 5835 5835 5835 5835 5835 5835 5835 5834 5833 5832 5831 5831
5808 5808 5809 5809 5810 5810 5811 5812 5813 5815 5816 5817 5819 5821 5822 5823 5825 5826 5827 5828 5829 5829 5830 5831 5832 5833 5834 5835 5836 5837 5838 5838 5839 5840 5841 5841 5842 5843 5844 5845 5845 5846 5846 5846 5846 5846 5846 5846 5847 5847 5847 5847 5847 5847 5847 5847 5847 5847 5847 5847 5847 5846 5846 5845 5844 5844 5843 5842 5841 5840 5839 5837 5836 5836 5835 5834 5834 5834 5834 5834 5834 5833 5833 5832 5831 5831 5830 5829
5809 5809 5810 5810 5810 5811 5812 5813 5814 5816 5817 5818 5820 5822 5823 5824 5825 5826 5827 5828 5829 5829 5829 5830 5831 5832 5833 5834 5835 5836 5837 5837 5838 5839 5840 5841 5842 5842 5843 5844 5844 5844 5845 5845 5845 5845 5845 5845 5845 5845 5845 5845 5846 5846 5846 5846 5846 5846 5846 5845 5845 5845 5844 5843 5843 5842 5841 5841 5840 5839 5838 5836 5835 5834 5833 5833 5832 5832 5832 5832 5832 5831 5831 5830 5830 5829 5828 5828
5809 5810 5810 5811 5811 5812 5813 5814 5815 5816 5817 5819 5820 5822 5823 5824 5825 5826 5827 5828 5828 5828 5829 5830 5831 5832 5832 5833 5834 5835 5836 5837 5837 5838 5839 5840 5841 5842 5842 5843 5843 5843 5843 5843 5843 5843 5843 5844 5844 5844 5844 5844 5844 5844 5844 5844 5844 5844 5844 5844 5843 5843 5842 5842 5841 5840 5840 5839 5838 5837 5836 5835 5834 5833 5832 5831 5831 5830 5830 5830 5830 5829 5829 5828 5828 5827 5826 5826
5809 5810 5811 5811 5812 5813 5814 5814 5815 5816 5817 5819 5820 5822 5823 5824 5825 5826 5827 5827 5827 5828 5829 5829 5830 5831 5831 5832 5833 5834 5835 5836 5837 5837 5838 5839 5840 5841 5841 5841 5842 5842 5842 5842 5842 5842 5842 5842 5842 5842 5842 5842 5842 5842 5842 5842 5842 5842 5842 5842 5841 5841 5840 5840 5839 5838 5838 5837 5836 5836 5835 5834 5833 5832 5831 5830 5829 5829 5829 5828 5828 5827 5827 5826 5826 5825 5824 5824
5810 5810 5811 5811 5812 5813 5814 5815 5816 5816 5818 5819 5820 5821 5822 5823 5824 5825 5826 5826 5827 5827 5828 5829 5829 5830 5830 5831 5832 5833 5834 5834 5835 5836 5837 5838 5838 5839 5840 5840 5840 5840 5840 5841 5841 5841 5841 5841 5841 5841 5840 5840 5840 5840 5840 5840 5840 5840 5840 5839 5839 5838 5838 5837 5837 5836 5836 5835 5834 5834 5833 5832 5831 5831 5830 5829 5828 5828 5827 5827 5826 5826 5825 5825 5824 5823 5823 5822
5810 5810 5811 5811 5812 5813 5814 5815 5816 5817 5818 5819 5820 5821 5822 5823 5824 5825 5825 5826 5826 5827 5827 5828 5828 5829 5829 5830 5831 5831 5832 5833 5834 5835 5835 5836 5837 5837 5838 5838 5839 5839 5839 5839 5839 5839 5839 5839 5839 5839 5839 5839 5838 5838 5838 5838 5838 5838 5837 5837 5837 5836 5836 5835 5835 5834 5833 5833 5832 5832 5831 5830 5830 5829 5828 5827 5827 5826 5826 5825 5825 5824 5824 5823 5822 5822 5821 5820
5810 5811 5811 5812 5812 5813 5814 5815 5816 5817 5818 5819 5820 5820 5821 5822 5823 5824 5825 5825 5826 5826 5826 5827 5827 5828 5828 5829 5829 5830 5831 5832 5832 5833 5834 5834 5835 5836 5836 5837 5837 5837 5838 5838 5838 5838 5838 5837 5837 5837 5837 5837 5836 5836 5836 5836 5835 5835 5835 5834 5834 5834 5833 5832 5832 5831 5831 5830 5830 5829 5829 5828 5827 5827 5826 5826 5825 5824 5824 5823 5823 5822 5822 5821 5820 5820 5819 5818
5810 5811 5811 5812 5812 5813 5814 5815 5815 5816 5817 5818 5819 5819 5820 5821 5822 5823 5824 5825 5825 5825 5825 5826 5826 5826 5827 5827 5828 5829 5829 5830 5831 5831 5832 5833 5833 5834 5835 5835 5835 5836 5836 5836 5836 5836 5836 5836 5835 5835 5835 5834 5834 5834 5834 5833 5833 5833 5832 5832 5832 5831 5830 5830 5829 5829 5828 5828 5827 5827 5826 5825 5825 5824 5824 5823 5822 5822 5822 5821 5820 5820 5819 5818 5817 5817 5816 5816
5810 5811 5811 5812 5812 5813 5814 5814 5815 5816 5817 5817 5818 5819 5820 5821 5822 5822 5823 5823 5824 5824 5824 5824 5825 5825 5825 5826 5827 5827 5828 5829 5829 5830 5831 5831 5832 5832 5833 5833 5834 5834 5834 5834 5834 5834 5834 5834 5833 5833 5833 5832 5832 5832 5831 5831 5830 5830 5830 5829 5829 5828 5828 5827 5826 5826 5826 5825 5825 5824 5823 5822 5821 5821 5821 5821 5820 5819 5819 5818 5818 5817 5817 5815 5815 5815 5814 5813
5810 5810 5811 5811 5812 5813 5813 5814 5814 5815 5816 5817 5817 5818 5819 5820 5820 5821 5822 5822 5823 5823 5823 5823 5823 5824 5824 5825 5825 5826 5826 5827 5828 5829 5829 5830 5830 5831 5831 5831 5832 5832 5832 5832 5832 5832 5832 5832 5831 5831 5831 5830 5830 5829 5829 5828 5828 5827 5827 5827 5826 5826 5825 5824 5824 5823 5823 5822 5822 5822 5820 5819 5818 5818 5818 5818 5817 5817 5816 5816 5815 5815 5814 5813 5812 5812 5811 5810
5809 5810 5810 5811 5811 5812 5812 5813 5813 5814 5815 5816 5816 5817 5818 5818 5819 5820 5820 5821 5821 5821 5822 5822 5822 5822 5823 5823 5824 5824 5825 5826 5827 5827 5828 5828 5829 5829 5829 5830 5830 5830 5830 5830 5830 5830 5830 5830 5829 5829 5829 5828 5828 5827 5827 5826 5826 5825 5825 5824 5823 5823 5822 5822 5821 5820 5820 5819 5819 5819 5818 5816 5815 5815 5815 5814 5814 5814 5813 5813 5813 5812 5812 5811 5810 5809 5808 5807
5807 5808 5809 5810 5810 5811 5811 5812 5812 5813 5814 5814 5815 5815 5816 5817 5817 5818 5818 5819 5819 5820 5820 5820 5821 5821 5821 5822 5823 5823 5824 5824 5825 5825 5826 5826 5827 5827 5827 5828 5828 5828 5828 5828 5828 5828 5828 5828 5827 5827 5827 5826 5826 5825 5825 5824 5824 5823 5822 5822 5821 5820 5820 5819 5818 5818 5817 5817 5816 5816 5815 5814 5813 5812 5811 5811 5811 5811 5810 5810 5810 5810 5809 5809 5808 5807 5806 5804
5806 5807 5808 5808 5809 5810 5810 5811 5811 5812 5812 5813 5814 5814 5815 5815 5816 5816 5817 5817 5818 5818 5819 5819 5819 5820 5820 5820 5821 5821 5822 5823 5823 5824 5824 5824 5825 5825 5825 5826 5826 5826 5826 5826 5827 5826 5826 5826 5826 5825 5825 5824 5824 5823 5823 5822 5821 5821 5820 5820 5819 5818 5818 5817 5816 5815 5815 5814 5814 5813 5812 5811 5811 5809 5808 5809 5809 5808 5807 5807 5807 5807 5807 5807 5806 5805 5804 5802
5805 5806 5807 5807 5808 5809 5809 5809 5810 5810 5811 5812 5812 5813 5813 5814 5814 5815 5815 5816 5816 5817 5817 5818 5818 5818 5818 5819 5819 5819 5820 5821 5821 5822 5822 5822 5823 5823 5823 5824 5824 5824 5824 5825 5825 5824 5824 5824 5823 5823 5823 5822 5822 5821 5821 5820 5819 5819 5818 5818 5817 5816 5816 5815 5814 5813 5813 5812 5811 5811 5810 5809 5808 5807 5806 5806 5806 5805 5804 5804 5804 5804 5804 5804 5803 5802 5801 5800
5804 5805 5805 5806 5807 5807 5808 5808 5809 5809 5810 5810 5811 5811 5812 5812 5813 5813 5814 5814 5815 5815 5816 5816 5816 5816 5817 5817 5817 5817 5818 5818 5819 5820 5820 5820 5821 5821 5821 5821 5822 5822 5822 5823 5822 5822 5822 5822 5821 5821 5821 5820 5820 5819 5818 5818 5817 5817 5816 5815 5815 5814 5814 5813 5812 5811 5811 5810 5809 5809 5809 5807 5805 5805 5804 5803 5804 5803 5801 5801 5801 5801 5801 5800 5799 5798 5797 5796
5803 5803 5804 5805 5805 5806 5807 5807 5807 5808 5809 5809 5809 5810 5810 5811 5811 5812 5812 5813 5813 5814 5814 5814 5814 5815 5815 5815 5815 5816 5816 5817 5817 5818 5818 5818 5819 5819 5819 5819 5820 5820 5820 5820 5820 5820 5820 5819 5819 5819 5818 5818 5817 5817 5816 5815 5815 5814 5814 5813 5812 5812 5811 5811 5810 5809 5808 5808 5807 5807 5807 5804 5802 5802 5802 5801 5801 5800 5799 5798 5797 5797 5797 5796 5795 5793 5792 5791
5801 5802 5802 5803 5804 5804 5805 5806 5806 5806 5807 5807 5808 5808 5808 5809 5809 5810 5811 5811 5811 5812 5812 5812 5813 5813 5813 5813 5813 5814 5814 5815 5815 5816 5816 5816 5817 5817 5817 5817 5817 5817 5818 5818 5818 5818 5817 5817 5817 5816 5816 5815 5815 5814 5814 5813 5813 5812 5811 5811 5810 5809 5809 5808 5807 5807 5806 5806 5804 5804 5804 5802 5798 5798 5798 5798 5798 5797 5796 5795 5794 5793 5793 5792 5790 5789 5787 5786
5799 5800 5801 5801 5802 5803 5803 5804 5804 5805 5805 5805 5806 5806 5807 5807 5808 5808 5809 5809 5810 5810 5810 5810 5811 5811 5811 5811 5811 5812 5812 5813 5813 5813 5814 5814 5814 5814 5815 5815 5815 5815 5815 5815 5815 5815 5815 5815 5814 5814 5813 5813 5812 5812 5811 5811 5810 5809 5808 5808 5807 5806 5806 5805 5804 5804 5803 5803 5801 5801 5801 5799 5796 5795 5794 5794 5795 5794 5793 5792 5791 5790 5789 5788 5786 5785 5783 5782
5797 5798 5799 5800 5800 5801 5801 5802 5802 5803 5803 5804 5804 5804 5805 5805 5806 5806 5807 5807 5808 5808 5808 5808 5809 5809 5809 5809 5810 5810 5810 5811 5811 5811 5811 5812 5812 5812 5812 5812 5812 5813 5812 5812 5812 5812 5812 5812 5812 5811 5811 5810 5809 5809 5808 5808 5807 5807 5806 5805 5804 5803 5803 5802 5802 5801 5800 5799 5799 5799 5798 5796 5795 5792 5789 5789 5791 5790 5789 5788 5787 5786 5785 5783 5782 5780 5779 5778
5795 5796 5797 5798 5798 5799 5799 5800 5800 5801 5801 5802 5802 5803 5803 5804 5804 5805 5805 5805 5806 5806 5806 5806 5806 5807 5807 5807 5808 5808 5808 5809 5809 5809 5809 5809 5810 5810 5810 5810 5810 5810 5810 5810 5810 5809 5810 5809 5809 5808 5808 5807 5807 5806 5805 5805 5805 5804 5803 5802 5801 5801 5800 5799 5799 5798 5796 5795 5797 5796 5794 5793 5794 5790 5785 5784 5785 5785 5784 5783 5782 5781 5780 5778 5777 5775 5774 5773
5793 5794 5795 5795 5796 5797 5797 5798 5798 5799 5799 5800 5800 5801 5801 5802 5802 5803 5803 5803 5804 5804 5804 5804 5804 5805 5805 5805 5805 5806 5806 5806 5806 5807 5807 5807 5807 5807 5807 5807 5807 5807 5807 5807 5806 5806 5806 5806 5806 5805 5804 5804 5803 5803 5802 5802 5801 5801 5800 5799 5798 5797 5797 5796 5795 5794 5792 5791 5793 5793 5790 5790 5791 5787 5783 5781 5780 5779 5779 5778 5777 5776 5774 5773 5771 5770 5769 5767
5791 5792 5792 5793 5794 5795 5795 5796 5796 5797 5797 5798 5799 5799 5799 5800 5800 5801 5801 5801 5801 5802 5802 5802 5802 5802 5803 5803 5803 5803 5804 5804 5804 5804 5804 5804 5804 5804 5804 5804 5804 5804 5804 5803 5804 5803 5803 5803 5803 5802 5801 5800 5799 5799 5798 5798 5798 5797 5797 5797 5795 5794 5793 5792 5792 5791 5788 5787 5789 5788 5786 5787 5786 5782 5780 5779 5778 5776 5774 5773 5772 5770 5769 5768 5767 5765 5763 5762
5789 5790 5790 5791 5792 5792 5793 5794 5794 5795 5796 5796 5797 5797 5797 5798 5798 5799 5799 5799 5799 5799 5800 5800 5800 5800 5800 5801 5801 5801 5801 5801 5801 5802 5802 5802 5802 5801 5801 5801 5801 5801 5801 5800 5800 5800 5799 5799 5799 5798 5798 5797 5796 5795 5794 5794 5793 5793 5794 5793 5792 5790 5789 5789 5788 5787 5784 5784 5784 5782 5781 5783 5781 5777 5776 5776 5774 5773 5771 5769 5767 5764 5763 5762 5761 5760 5758 5756
5787 5788 5788 5789 5790 5790 5791 5792 5792 5793 5794 5794 5794 5795 5795 5796 5796 5796 5797 5797 5797 5797 5797 5798 5798 5798 5798 5798 5798 5798 5798 5798 5799 5799 5799 5799 5799 5798 5798 5798 5798 5798 5797 5797 5797 5796 5796 5795 5795 5794 5794 5794 5793 5791 5790 5789 5788 5789 5790 5790 5788 5786 5786 5785 5784 5782 5780 5780 5779 5777 5777 5777 5774 5772 5772 5771 5769 5768 5767 5765 5762 5759 5758 5756 5755 5753 5751 5749
5785 5786 5786 5787 5788 5788 5789 5790 5790 5791 5791 5792 5792 5793 5793 5793 5794 5794 5794 5795 5795 5795 5795 5795 5795 5796 5796 5796 5796 5796 5796 5796 5796 5796 5796 5796 5795 5795 5795 5795 5795 5794 5794 5793 5793 5793 5792 5791 5791 5790 5789 5791 5790 5787 5786 5785 5783 5784 5786 5785 5783 5782 5781 5780 5779 5777 5776 5775 5773 5772 5773 5771 5768 5766 5766 5765 5764 5763 5761 5760 5758 5755 5753 5751 5749 5747 5744 5741
5782 5783 5784 5785 5785 5786 5787 5787 5788 5788 5789 5789 5790 5790 5790 5791 5791 5791 5792 5792 5792 5792 5793 5793 5793 5793 5793 5793 5793 5793 5793 5793 5793 5792 5792 5792 5792 5792 5791 5791 5791 5791 5790 5790 5789 5789 5788 5787 5787 5785 5784 5786 5786 5784 5782 5780 5778 5780 5782 5780 5779 5778 5776 5775 5774 5773 5771 5769 5768 5768 5767 5765 5762 5761 5760 5759 5757 5756 5755 5754 5752 5749 5747 5745 5743 5740 5737 5734